This demonstration page uses our WeatherBlox Daily Observations layout. Learn more.

Left ArrowRight Arrow

Hourly Observations for November 7, 2015

Temp ( °F °C ) Dew Point ( °F °C ) Humidity (%) Winds ( mph kmh ) Pressure ( in mb ) Visibility ( mi km ) Precip ( " mm )
12:05 am 00:05 Clear 46 8 41 5 82 82 NW 10 17 30.21 1023 10 16 N/A
12:25 am 00:25 Clear 46 8 39 4 76 76 NW 10 17 30.21 1023 10 16 N/A
12:45 am 00:45 Clear 45 7 37 3 76 76 NW 9 15 30.21 1023 10 16 N/A
1:05 am 01:05 Clear 45 7 37 3 76 76 NW 8 13 30.21 1023 10 16 N/A
1:25 am 01:25 Clear 45 7 37 3 76 76 NW 8 13 30.21 1023 10 16 N/A
1:45 am 01:45 Clear 43 6 37 3 81 81 WNW 6 9 30.21 1023 10 16 N/A
2:05 am 02:05 Clear 43 6 37 3 81 81 W 6 9 30.21 1023 10 16 N/A
2:25 am 02:25 Clear 43 6 37 3 81 81 WNW 5 7 30.21 1023 10 16 N/A
2:45 am 02:45 Clear 41 5 37 3 87 87 W 3 6 30.21 1023 10 16 N/A
3:05 am 03:05 Clear 41 5 37 3 87 87 WNW 3 6 30.21 1023 10 16 N/A
3:25 am 03:25 Clear 41 5 36 2 81 81 WNW 3 6 30.21 1023 10 16 N/A
3:45 am 03:45 Clear 41 5 37 3 87 87 W 3 6 30.24 1024 10 16 N/A
4:05 am 04:05 Clear 41 5 37 3 87 87 WSW 3 6 30.24 1024 10 16 N/A
4:25 am 04:25 Clear 41 5 37 3 87 87 Calm 30.24 1024 10 16 N/A
4:45 am 04:45 Clear 41 5 36 2 81 81 W 3 6 30.24 1024 10 16 N/A
5:05 am 05:05 Clear 39 4 36 2 87 87 W 3 6 30.27 1025 10 16 N/A
5:25 am 05:25 Clear 39 4 36 2 87 87 W 3 6 30.27 1025 10 16 N/A
5:45 am 05:45 Clear 39 4 36 2 87 87 W 3 6 30.27 1025 10 16 N/A
6:05 am 06:05 Clear 37 3 36 2 93 93 W 5 7 30.30 1026 10 16 N/A
6:25 am 06:25 Clear 39 4 36 2 87 87 W 5 7 30.30 1026 10 16 N/A
6:45 am 06:45 Clear 39 4 36 2 87 87 W 5 7 30.30 1026 10 16 N/A
7:05 am 07:05 Clear 39 4 36 2 87 87 W 5 7 30.30 1026 10 16 N/A
7:25 am 07:25 Sunny 37 3 36 2 93 93 W 6 9 30.30 1026 10 16 N/A
7:45 am 07:45 Sunny 37 3 36 2 93 93 W 5 7 30.33 1027 10 16 N/A
8:05 am 08:05 Sunny 37 3 36 2 93 93 W 6 9 30.33 1027 10 16 N/A
8:25 am 08:25 Sunny 39 4 37 3 93 93 W 5 7 30.33 1027 10 16 N/A
8:45 am 08:45 Sunny 43 6 37 3 81 81 WNW 7 11 30.30 1026 10 16 N/A
9:05 am 09:05 Sunny 45 7 39 4 81 81 NW 8 13 30.30 1026 10 16 N/A
9:25 am 09:25 Sunny 46 8 39 4 76 76 NW 10 17 30.30 1026 10 16 N/A
9:45 am 09:45 Sunny 48 9 37 3 66 66 NNW 10 17 30.30 1026 10 16 N/A
10:05 am 10:05 Sunny 48 9 36 2 62 62 NW 12 19 30.30 1026 10 16 N/A
10:25 am 10:25 Sunny 50 10 36 2 58 58 NNW 9 15 30.30 1026 10 16 N/A
10:45 am 10:45 Sunny 50 10 34 1 54 54 NW 10 17 30.33 1027 10 16 N/A
11:05 am 11:05 Sunny 52 11 34 1 50 50 NNW 13 20 30.33 1027 10 16 N/A
11:25 am 11:25 Sunny 52 11 34 1 50 50 WNW 10 17 30.33 1027 10 16 N/A
11:45 am 11:45 Sunny 52 11 32 0 47 47 NNW 8 13 30.33 1027 10 16 N/A
12:05 pm 12:05 Sunny 54 12 34 1 47 47 NNW 9 15 30.30 1026 10 16 N/A
12:25 pm 12:25 Sunny 54 12 32 0 44 44 NNW 12 19 30.30 1026 10 16 N/A
12:45 pm 12:45 Sunny 54 12 32 0 44 44 NW 13 20 30.30 1026 10 16 N/A
1:05 pm 13:05 Sunny 55 13 32 0 41 41 NW 9 15 30.30 1026 10 16 N/A
1:25 pm 13:25 Sunny 55 13 32 0 41 41 WNW 12 19 30.30 1026 10 16 N/A
1:45 pm 13:45 Sunny 55 13 32 0 41 41 WNW 9 15 30.30 1026 10 16 N/A
2:05 pm 14:05 Sunny 55 13 32 0 41 41 WNW 6 9 30.30 1026 10 16 N/A
2:25 pm 14:25 Sunny 55 13 32 0 41 41 WNW 16 26 30.27 1025 10 16 N/A
2:45 pm 14:45 Partly Cloudy 55 13 32 0 41 41 NW 15 24 30.30 1026 10 16 N/A
3:05 pm 15:05 Partly Cloudy 55 13 32 0 41 41 WNW 14 22 30.30 1026 10 16 N/A
3:25 pm 15:25 Mostly Cloudy 55 13 32 0 41 41 WNW 16 26 30.30 1026 10 16 N/A
3:45 pm 15:45 Partly Cloudy 55 13 32 0 41 41 WNW 13 20 30.30 1026 10 16 N/A
4:05 pm 16:05 Partly Cloudy 54 12 30 -1 41 41 WNW 15 24 30.30 1026 10 16 N/A
4:25 pm 16:25 Partly Cloudy 54 12 30 -1 41 41 NW 12 19 30.30 1026 10 16 N/A
5:05 pm 17:05 Sunny 50 10 30 -1 47 47 NW 13 20 30.33 1027 10 16 N/A
5:25 pm 17:25 Sunny 50 10 28 -2 43 43 NW 9 15 30.33 1027 10 16 N/A
5:45 pm 17:45 Clear 48 9 30 -1 50 50 WNW 8 13 30.33 1027 10 16 N/A
6:05 pm 18:05 Clear 45 7 30 -1 57 57 W 7 11 30.33 1027 10 16 N/A
6:25 pm 18:25 Clear 45 7 30 -1 57 57 W 5 7 30.33 1027 10 16 N/A
6:45 pm 18:45 Clear 43 6 30 -1 61 61 WNW 6 9 30.33 1027 10 16 N/A
7:05 pm 19:05 Clear 43 6 30 -1 61 61 NW 5 7 30.33 1027 10 16 N/A
7:25 pm 19:25 Clear 45 7 30 -1 57 57 Calm 30.36 1028 10 16 N/A
7:45 pm 19:45 Clear 41 5 32 0 70 70 Calm 30.39 1029 10 16 N/A
8:05 pm 20:05 Clear 39 4 30 -1 70 70 WNW 6 9 30.39 1029 10 16 N/A
8:25 pm 20:25 Clear 43 6 30 -1 61 61 WNW 5 7 30.36 1028 10 16 N/A
8:45 pm 20:45 Clear 43 6 30 -1 61 61 NW 5 7 30.36 1028 10 16 N/A
9:05 pm 21:05 Clear 41 5 30 -1 66 66 NW 5 7 30.42 1030 10 16 N/A
9:25 pm 21:25 Clear 41 5 30 -1 66 66 NW 5 7 30.42 1030 10 16 N/A
9:45 pm 21:45 Clear 41 5 32 0 70 70 NW 6 9 30.42 1030 10 16 N/A
10:05 pm 22:05 Clear 41 5 32 0 70 70 NW 7 11 30.42 1030 10 16 N/A
10:25 pm 22:25 Clear 39 4 32 0 75 75 NW 6 9 30.42 1030 10 16 N/A
10:45 pm 22:45 Clear 39 4 32 0 75 75 NW 3 6 30.42 1030 10 16 N/A
11:05 pm 23:05 Clear 36 2 30 -1 81 81 WNW 3 6 30.42 1030 10 16 N/A
11:25 pm 23:25 Clear 36 2 30 -1 81 81 NW 3 6 30.42 1030 10 16 N/A
11:45 pm 23:45 Clear 39 4 32 0 75 75 NW 5 7 30.42 1030 10 16 N/A

Powered by Vaisala Xweather